sat.trackr.live / text

‹ back to catalog

STARLINK-35168

NORAD 65509 · 2025-198T

PAYLOAD ACTIVE UNKNOWN

§ Identity

Operator
Country
US
Launch date
2025-09-05
Launch site
AFETR
Launch vehicle
Mass (kg)
RCS (m²)

Purposes: comms

External: N2YO · Heavens-Above · Gunter

§ Orbital elements

Epoch: 2026-05-25T01:30:59.933952Z

Period
93.85 min
Inclination
53.1596°
Eccentricity
0.0000905
Mean motion
15.34400577 rev/d
Perigee alt
462.1 km
Apogee alt
463.3 km
Semi-major
6,840.8 km
B*
7.5677e-4
RAAN
275.5101°
Arg perigee
92.9648°
Mean anomaly
267.1458°
Rev number
4,032

§ Raw data

STARLINK-351681 65509U 25198T   26145.06319368  .00025279  00000+0  75677-3 0  99932 65509  53.1596 275.5101 0000905  92.9648 267.1458 15.34400577 40327

JSON: /api/v1/satellites/65509 · /tle

For live sub-satellite position, see the globe view (requires WebGL).

§ Visibility from observer

Set your observer location to see the next 7 days of passes ≥ 10°. The values pass through the URL so the page stays shareable.

No JS? Fill the form by hand. The geolocation button needs JavaScript.